This is the latest recevied weather packets stored in our database for station/object PY2SDN-13. If no packets are shown the sender has not sent any weather packets the latest 10 day(s).
| Time | Temp. | Humidity | Pressure | Rain* | Wind** | Luminosity | Snow |
|---|---|---|---|---|---|---|---|
| 1777955403 | 20° C | 26% | 1011.8 hPa | 0 mm | - | 0 W/m² | - |
| 1777954503 | 20.56° C | 26% | 1011.9 hPa | 0 mm | - | 0 W/m² | - |
| 1777953603 | 20.56° C | 26% | 1012 hPa | 0 mm | - | 0 W/m² | - |
| 1777952703 | 20.56° C | 26% | 1012 hPa | 0 mm | - | 0 W/m² | - |
| 1777951803 | 20.56° C | 26% | 1012.2 hPa | 0 mm | - | 0 W/m² | - |
| 1777950903 | 20.56° C | 26% | 1012.3 hPa | 0 mm | - | 0 W/m² | - |
| 1777950003 | 20.56° C | 26% | 1012.4 hPa | 0 mm | - | 0 W/m² | - |
| 1777949103 | 20.56° C | 26% | 1012.4 hPa | 0 mm | - | 0 W/m² | - |
| 1777948203 | 20.56° C | 26% | 1012.3 hPa | 0 mm | - | 0 W/m² | - |
| 1777947303 | 21.11° C | 26% | 1012.2 hPa | 0 mm | - | 0 W/m² | - |
| 1777946403 | 20.56° C | 26% | 1012.3 hPa | 0 mm | - | 0 W/m² | - |
| 1777945504 | 21.11° C | 26% | 1012.3 hPa | 0 mm | - | 0 W/m² | - |
| 1777944604 | 21.67° C | 26% | 1012.3 hPa | 0 mm | - | 0 W/m² | - |
| 1777943704 | 21.67° C | 26% | 1012.3 hPa | 0 mm | - | 0 W/m² | - |
| 1777942804 | 21.67° C | 26% | 1012.4 hPa | 0 mm | - | 0 W/m² | - |
| 1777941904 | 21.67° C | 26% | 1012.3 hPa | 0 mm | - | 0 W/m² | - |
| 1777941004 | 21.67° C | 26% | 1012.4 hPa | 0 mm | - | 0 W/m² | - |
| 1777940104 | 21.67° C | 26% | 1012.2 hPa | 0 mm | - | 0 W/m² | - |
| 1777939204 | 21.67° C | 26% | 1012.2 hPa | 0 mm | - | 0 W/m² | - |
| 1777938304 | 21.67° C | 26% | 1012.2 hPa | 0 mm | - | 0 W/m² | - |
| 1777937404 | 22.22° C | 26% | 1011.9 hPa | 0 mm | - | 0 W/m² | - |
| 1777936504 | 22.22° C | 26% | 1012 hPa | 0 mm | - | 0 W/m² | - |
| 1777935604 | 22.22° C | 26% | 1012 hPa | 0 mm | - | 0 W/m² | - |
| 1777934704 | 22.78° C | 26% | 1011.9 hPa | 0 mm | - | 0 W/m² | - |
| 1777933804 | 22.78° C | 26% | 1011.9 hPa | 0 mm | - | 0 W/m² | - |
* Rain latest hour (hover to see other rain measurements)
** Current wind speed in m/s (hover to see current wind gust speed)